ENVISAT (27386 NORAD) Tracking and Keplerian Element Data

This shows tracking and keplerian element data for the satellite.

Feedback or suggestion? Click here.




ElementValue
Catalog27386
NameENVISAT
Epoch Orbit85754
Epoch Day196.13723781
Epoch Year2018
RAAN228.8782
Inclination98.1823
Eccentricity0.0001357
Argument of Perigee96.3771
Mean Anonmoly310.2765
Mean Motion14.37925719
Decay Rate-1.8E-07
L11 27386U 02009A 18196.13723781 -.00000018 00000-0 74864-5 0 9998
L22 27386 98.1823 228.8782 0001357 96.3771 310.2765 14.37925719857546

Live tracking and technical data element details for ENVISAT (NORAD 27386). ENVISAT can be tracked NOW for your location showing map with azimuth and elevation plus other details from your city location.

Track the satellite on the map from your city or location and see movement details for azimuth, elevation, latitude, longitude, range, height, and movement on the map or in text.







IsCatalogInMostPopularTable: catalog: 27386, numindb: 24
Update: records affected: 1



GetName: 27386 ENVISAT

Hit Count: updated at: Sun, 15 Jul 2018 23:00:29 GMT